Location: Lake Crest
(37.6062°N, 88.9176°W)
Time: 20:58:28
(UTC+00:00)

Cosmos 2344 - Pass Details

Date: 15 December 2019
Orbit: 1256 x 2986 km, 63.3° (Epoch: 25 January)

Event Time Altitude Azimuth Distance (km) Brightness Sun altitude
Rises 01:19:01 0° 328° (NNW) 4,781 6.9 -31.0°
Reaches altitude 10° 01:21:44 10° 330° (NNW) 3,954 6.4 -31.5°
Maximum altitude 01:32:01 75° 57° (ENE) 2,161 4.4 -33.6°
Enters shadow 01:36:12 51° 128° (SE) 2,722 4.9 -34.4°
